World > North America > United States > New Jersey

Delran, New Jersey Regional Weather

Lat: 40.03N, Lon: 74.95W
Wx Zone: NJZ019
Warning FLW WEATHER ALERT - EXCESSIVE HEAT WARNING (More Info. Click Here) Warning
Feedback

Delran, NJ Regional Weather

Expires:201907210100;;377958
ASUS41 KOKX 210014
RWROKX

Regional Weather Roundup
National Weather Service New York NY
800 PM EDT SAT JUL 20 2019

Note: "FAIR" indicates few or no clouds below 12,000 feet with no
significant weather and/or obstructions to visibility.


NJZ001-105-106-008-010-013-015-019>022-104-210100-
New Jersey
  
CITY           SKY/WX    TMP DP  RH WIND       PRES   REMARKS
Newark/Liberty MOCLDY    94  71  47 W12       29.80R HX 101           
Teterboro      FAIR      93  71  48 W8        29.79R HX 100           
Caldwell       FAIR      93  75  55 SW3       29.81R HX 104           
Somerville     FAIR      89  75  63 CALM      29.81R HX  99           
Linden         FAIR      93  70  47 NW6       29.81R HX  98           
Perth Amboy      N/A     91 N/A N/A W9          N/A                   
Sussex         FAIR      77  71  82 CALM      29.85F                  
Andover          N/A     82  73  74 CALM      29.86R                  
Trenton        FAIR      91  74  57 W7        29.83R HX 100           
Millville      FAIR      88  79  74 SW3       29.85R HX 103           
Atlantic City  FAIR      93  76  57 SW7       29.84R HX 105           
Wrightstown    FAIR      89  76  65 W7        29.82  HX 100           
Toms River     FAIR      89  78  70 SW6       29.84R HX 103           
Belmar         FAIR      90  75  61 SW6       29.84R HX 100           
$$
 

SKY/WX - Weather  TMP - Temperature  DP - Dew Point  RH - Relative Humidity
WIND - Wind Direction/Speed PRES - Barometric Pressure VSB - Visibility
WCI - Wind Chill Index E13G22 Wind - East Wind 13 mph/Gusts of 22 mph